Starlink 11325

operational
NORAD ID: 61538 Int'l Des: 2024-184 Owner: SPXS Country: US Constellation: starlink
LEOCIRCULAR

About Starlink 11325

Description loading...

Live Position

Loading 3D Globe...

Upcoming Passes

Altitude History

Altitude vs Time

uPlot chart will show altitude changes over time

Two-Line Element Set

1 61538U 24184G 26035.98192788 .00000776 00000-0 11270-4 0 9995
2 61538 53.1587 37.2485 0001378 88.2732 271.8444 15.69703320 75280
Epoch: Feb 4, 2026 • Age: 10 hours

Current Status

Altitude 362.7 km
Velocity 7.70 km/s
Sub-Earth Point 40.78°N, 99.27°W
Launch Date Oct 15, 2024
Age 1.3 years
Type internet

Technical Details

Classification Payload
Mass 960.00 kg
Dry Mass 910.00 kg
Total Mass 960.00 kg
Length 0.30 m
Diameter 4.10 m
Span 29.00 m
Shape Box + pan
Manufacturer SPXS
Bus Type Starlink V2MD
Phase Status In Orbit
Owner/State SPXS/US

Large Constellations

Loading constellations...